�������l�o���
Date,Time,MP-1(��Sv/h),MP-2(��Sv/h),MP-3(��Sv/h),MP-4(��Sv/h),MP-5(��Sv/h),MP-6(��Sv/h),MP-7(��Sv/h),MP-8(��Sv/h),����,����(m/s),���J
2016/06/19,00:00,1.311,-,2.474,2.262,2.082,0.643,1.206,1.044,��쐼,3.4,��
2016/06/19,00:10,1.308,-,2.472,2.255,2.080,0.644,1.206,1.043,��,4.7,��
2016/06/19,00:20,1.307,-,2.476,2.256,2.083,0.643,1.205,1.041,��,5.3,��
2016/06/19,00:30,1.309,-,2.473,2.260,2.083,0.644,1.207,1.042,��,6.4,��
2016/06/19,00:40,1.307,-,2.471,2.259,2.079,0.645,1.206,1.040,��,6.9,��
2016/06/19,00:50,1.310,-,2.472,2.260,2.078,0.644,1.207,1.043,��,7.1,��
2016/06/19,01:00,1.309,-,2.469,2.259,2.082,0.644,1.207,1.042,��쐼,2.8,��
2016/06/19,01:10,1.308,-,2.473,2.264,2.082,0.645,1.206,1.043,��쐼,1.5,��
2016/06/19,01:20,1.308,-,2.472,2.260,2.080,0.644,1.207,1.043,���쐼,0.9,��
2016/06/19,01:30,1.309,-,2.472,2.259,2.081,0.644,1.206,1.042,��,0.6,��
2016/06/19,01:40,1.308,-,2.474,2.260,2.078,0.645,1.208,1.043,�k,1.7,��
2016/06/19,01:50,1.308,-,2.472,2.258,2.079,0.644,1.207,1.042,�k,2.3,��
2016/06/19,02:00,1.309,-,2.473,2.258,2.083,0.644,1.205,1.044,�k�k��,3.3,��
2016/06/19,02:10,1.307,-,2.472,2.260,2.082,0.644,1.207,1.042,�k�k��,2.3,��
2016/06/19,02:20,1.309,-,2.469,2.259,2.081,0.644,1.205,1.045,�k,2.6,��
2016/06/19,02:30,1.311,-,2.470,2.259,2.079,0.645,1.207,1.043,�k�k��,2.8,��
2016/06/19,02:40,1.308,-,2.472,2.260,2.080,0.643,1.205,1.041,�k,2.3,��
2016/06/19,02:50,1.306,-,2.471,2.258,2.080,0.645,1.205,1.042,�k,2.9,��
2016/06/19,03:00,1.309,-,2.471,2.261,2.077,0.644,1.205,1.041,�k,2.9,��
2016/06/19,03:10,1.306,-,2.470,2.260,2.081,0.643,1.205,1.042,�k,2.8,��
2016/06/19,03:20,1.309,-,2.472,2.262,2.080,0.641,1.204,1.041,�k,2.9,��
2016/06/19,03:30,1.307,-,2.473,2.261,2.080,0.643,1.205,1.042,�k,2.5,��
2016/06/19,03:40,1.307,-,2.470,2.258,2.081,0.643,1.205,1.042,�k,2.5,��
2016/06/19,03:50,1.308,-,2.470,2.260,2.078,0.643,1.205,1.043,�k,3.0,��
2016/06/19,04:00,1.308,-,2.471,2.260,2.080,0.645,1.207,1.042,�k�k��,3.3,��
2016/06/19,04:10,1.308,-,2.472,2.260,2.083,0.642,1.205,1.042,�k�k��,3.7,��
2016/06/19,04:20,1.307,-,2.471,2.262,2.082,0.643,1.206,1.042,�k�k��,3.6,��
2016/06/19,04:30,1.308,-,2.470,2.260,2.082,0.641,1.204,1.043,�k�k��,4.2,��
2016/06/19,04:40,1.307,-,2.473,2.259,2.080,0.643,1.205,1.043,�k�k��,4.0,��
2016/06/19,04:50,1.308,-,2.472,2.261,2.079,0.642,1.203,1.043,�k�k��,4.3,��
2016/06/19,05:00,1.307,-,2.473,2.262,2.078,0.643,1.204,1.042,�k�k��,4.0,��
2016/06/19,05:10,1.309,-,2.476,2.260,2.082,0.643,1.205,1.043,�k�k��,3.8,��
2016/06/19,05:20,1.309,-,2.474,2.258,2.082,0.643,1.203,1.041,�k�k��,4.6,��
2016/06/19,05:30,1.307,-,2.477,2.261,2.080,0.644,1.202,1.041,�k�k��,4.4,��
2016/06/19,05:40,1.309,-,2.477,2.260,2.080,0.643,1.201,1.043,�k�k��,4.6,��
2016/06/19,05:50,1.308,-,2.472,2.262,2.081,0.642,1.202,1.043,�k�k��,4.0,��
2016/06/19,06:00,1.309,-,2.474,2.260,2.084,0.643,1.203,1.042,�k�k��,4.6,��
2016/06/19,06:10,1.307,-,2.474,2.261,2.082,0.645,1.203,1.043,�k�k��,4.2,��
2016/06/19,06:20,1.309,-,2.474,2.259,2.082,0.644,1.201,1.042,�k�k��,4.3,��
2016/06/19,06:30,1.308,-,2.471,2.263,2.081,0.643,1.204,1.043,�k�k��,3.7,��
2016/06/19,06:40,1.308,-,2.475,2.263,2.080,0.642,1.204,1.042,�k�k��,3.3,��
2016/06/19,06:50,1.309,-,2.475,2.257,2.080,0.643,1.203,1.042,�k�k��,3.4,��
2016/06/19,07:00,1.310,-,2.474,2.264,2.080,0.642,1.205,1.042,�k�k��,2.6,��
2016/06/19,07:10,1.310,-,2.476,2.262,2.081,0.641,1.205,1.044,�k,2.6,��
2016/06/19,07:20,1.309,-,2.475,2.262,2.081,0.642,1.203,1.042,�k,2.2,��
2016/06/19,07:30,1.307,-,2.476,2.263,2.081,0.642,1.203,1.042,�k�k��,1.4,��
2016/06/19,07:40,1.307,-,2.476,2.259,2.082,0.642,1.202,1.042,�k,1.9,��
2016/06/19,07:50,1.307,-,2.479,2.266,2.083,0.643,1.203,1.043,�k�k��,1.2,��
2016/06/19,08:00,1.309,-,2.479,2.261,2.085,0.643,1.202,1.042,�k�k��,1.2,��
2016/06/19,08:10,1.306,-,2.474,2.265,2.084,0.641,1.203,1.043,���k��,1.4,��
2016/06/19,08:20,1.305,-,2.478,2.266,2.084,0.642,1.203,1.043,�k��,1.4,��
2016/06/19,08:30,1.307,-,2.480,2.269,2.084,0.641,1.204,1.041,�k��,0.6,��
2016/06/19,08:40,1.304,-,2.476,2.265,2.084,0.643,1.207,1.039,���k��,0.9,��
2016/06/19,08:50,1.308,-,2.478,2.266,2.085,0.644,1.203,1.040,��,1.4,��
2016/06/19,09:00,1.306,-,2.480,2.264,2.087,0.643,1.207,1.040,���k��,2.5,��
2016/06/19,09:10,1.307,-,2.483,2.265,2.088,0.644,1.205,1.040,��,2.5,��
2016/06/19,09:20,1.306,-,2.483,2.264,2.089,0.642,1.206,1.041,���쓌,2.2,��
2016/06/19,09:30,1.308,-,2.479,2.267,2.093,0.645,1.206,1.040,��,1.7,��
2016/06/19,09:40,1.306,-,2.483,2.267,2.087,0.643,1.206,1.039,���쓌,2.5,��
2016/06/19,09:50,1.305,-,2.483,2.265,2.087,0.642,1.204,1.040,��,2.0,��
2016/06/19,10:00,1.305,-,2.481,2.268,2.095,0.644,1.207,1.041,���쓌,2.2,��
2016/06/19,10:10,1.306,-,2.483,2.268,2.093,0.643,1.205,1.041,���k��,2.0,��
2016/06/19,10:20,1.307,-,2.486,2.268,2.091,0.643,1.207,1.041,��,2.0,��
2016/06/19,10:30,1.306,-,2.486,2.270,2.097,0.643,1.207,1.040,��,2.3,��
2016/06/19,10:40,1.307,-,2.487,2.269,2.095,0.643,1.206,1.043,��,2.0,��
2016/06/19,10:50,1.307,-,2.487,2.266,2.097,0.645,1.208,1.042,��,2.0,��
2016/06/19,11:00,1.307,-,2.487,2.269,2.098,0.645,1.205,1.041,��,2.5,��
2016/06/19,11:10,1.307,-,2.492,2.267,2.099,0.644,1.206,1.042,��,2.2,��
2016/06/19,11:20,1.308,-,2.491,2.265,2.096,0.643,1.206,1.040,��,2.0,��
2016/06/19,11:30,1.307,-,2.490,2.267,2.098,0.646,1.208,1.042,��,2.5,��
2016/06/19,11:40,1.308,-,2.491,2.270,2.099,0.643,1.208,1.043,���k��,3.0,��
2016/06/19,11:50,1.310,-,2.490,2.267,2.099,0.645,1.207,1.040,���쓌,3.0,��
2016/06/19,12:00,1.311,-,2.492,2.270,2.096,0.645,1.209,1.041,��,2.0,��
2016/06/19,12:10,1.309,-,2.492,2.269,2.098,0.645,1.207,1.041,���쓌,2.3,��
2016/06/19,12:20,1.309,-,2.493,2.267,2.099,0.646,1.209,1.043,���쓌,2.6,��
2016/06/19,12:30,1.310,-,2.493,2.270,2.100,0.645,1.209,1.043,���쓌,2.5,��
2016/06/19,12:40,1.311,-,2.493,2.269,2.104,0.646,1.209,1.042,�쓌,3.4,��
2016/06/19,12:50,1.311,-,2.491,2.269,2.101,0.646,1.208,1.043,�쓌,3.4,��
2016/06/19,13:00,1.313,-,2.493,2.271,2.105,0.647,1.208,1.042,��쓌,5.0,��
2016/06/19,13:10,1.311,-,2.495,2.272,2.106,0.645,1.209,1.041,��쓌,9.3,��
2016/06/19,13:20,1.313,-,2.494,2.273,2.105,0.648,1.211,1.043,��쓌,9.8,��
2016/06/19,13:30,1.313,-,2.497,2.271,2.101,0.648,1.209,1.045,��쓌,11.1,��
2016/06/19,13:40,1.313,-,2.494,2.276,2.106,0.648,1.211,1.042,��,10.8,��
2016/06/19,13:50,1.314,-,2.501,2.272,2.103,0.647,1.211,1.042,��,10.8,��
2016/06/19,14:00,1.316,-,2.498,2.275,2.104,0.648,1.210,1.043,��,8.5,��
2016/06/19,14:10,1.313,-,2.500,2.272,2.104,0.648,1.210,1.044,��,8.3,��
2016/06/19,14:20,1.315,-,2.501,2.272,2.107,0.646,1.210,1.044,��,11.0,��
2016/06/19,14:30,1.315,-,2.499,2.272,2.107,0.648,1.210,1.042,��,8.7,��
2016/06/19,14:40,1.315,-,2.499,2.274,2.107,0.648,1.209,1.045,��,10.4,��
2016/06/19,14:50,1.316,-,2.502,2.273,2.107,0.648,1.210,1.043,��,7.7,��
2016/06/19,15:00,1.316,-,2.499,2.273,2.105,0.647,1.213,1.046,��,8.3,��
2016/06/19,15:10,1.315,-,2.498,2.273,2.107,0.648,1.210,1.045,��,7.9,��
2016/06/19,15:20,1.316,-,2.499,2.273,2.112,0.647,1.211,1.043,��,8.3,��
2016/06/19,15:30,1.316,-,2.501,2.274,2.105,0.649,1.210,1.046,��,8.3,��
2016/06/19,15:40,1.315,-,2.503,2.277,2.107,0.644,1.210,1.042,��,10.3,��
2016/06/19,15:50,1.312,-,2.501,2.279,2.109,0.646,1.209,1.045,��,10.1,��
2016/06/19,16:00,1.311,-,2.500,2.278,2.108,0.648,1.211,1.045,��,10.7,��
2016/06/19,16:10,1.315,-,2.501,2.274,2.109,0.646,1.209,1.044,��,10.7,��
2016/06/19,16:20,1.316,-,2.504,2.278,2.108,0.645,1.209,1.045,��,10.6,��
2016/06/19,16:30,1.314,-,2.505,2.279,2.109,0.646,1.208,1.045,��,11.7,��
2016/06/19,16:40,1.312,-,2.502,2.279,2.111,0.645,1.208,1.043,��쓌,10.3,��
2016/06/19,16:50,1.314,-,2.506,2.280,2.107,0.646,1.211,1.045,��쓌,9.1,��
2016/06/19,17:00,1.314,-,2.505,2.278,2.106,0.647,1.214,1.045,��,9.4,��
2016/06/19,17:10,1.313,-,2.506,2.281,2.105,0.647,1.211,1.045,��,9.3,��
2016/06/19,17:20,1.316,-,2.504,2.280,2.110,0.646,1.212,1.046,��,9.7,��
2016/06/19,17:30,1.315,-,2.507,2.282,2.107,0.645,1.212,1.047,��,10.5,��
2016/06/19,17:40,1.318,-,2.505,2.279,2.107,0.647,1.212,1.047,��,10.7,��
2016/06/19,17:50,1.313,-,2.505,2.277,2.109,0.644,1.211,1.047,��,9.6,��
2016/06/19,18:00,1.313,-,2.501,2.280,2.113,0.645,1.212,1.048,��,8.1,��
2016/06/19,18:10,1.315,-,2.506,2.280,2.109,0.646,1.211,1.048,��,7.7,��
2016/06/19,18:20,1.316,-,2.505,2.281,2.109,0.644,1.211,1.047,��,9.0,��
2016/06/19,18:30,1.315,-,2.505,2.279,2.112,0.644,1.210,1.046,��,9.3,��
2016/06/19,18:40,1.313,-,2.505,2.282,2.109,0.642,1.210,1.048,��,9.4,��
2016/06/19,18:50,1.316,-,2.506,2.280,2.110,0.645,1.212,1.046,��,9.8,��
2016/06/19,19:00,1.316,-,2.505,2.281,2.111,0.645,1.212,1.046,��,9.6,��
2016/06/19,19:10,1.319,-,2.504,2.283,2.111,0.643,1.212,1.047,��,9.1,��
2016/06/19,19:20,1.319,-,2.507,2.283,2.108,0.646,1.210,1.046,��,8.2,��
2016/06/19,19:30,1.316,-,2.504,2.280,2.111,0.646,1.211,1.048,��,8.6,��
2016/06/19,19:40,1.317,-,2.502,2.281,2.106,0.646,1.213,1.046,��,8.0,�L
2016/06/19,19:50,1.316,-,2.508,2.279,2.107,0.645,1.211,1.047,��,8.9,�L
2016/06/19,20:00,1.315,-,2.501,2.279,2.103,0.646,1.211,1.047,��쓌,8.9,��
2016/06/19,20:10,1.317,-,2.499,2.276,2.104,0.644,1.210,1.046,��,9.2,��
2016/06/19,20:20,1.318,-,2.501,2.274,2.106,0.646,1.211,1.048,��,9.4,��
2016/06/19,20:30,1.315,-,2.504,2.277,2.105,0.647,1.211,1.047,��,9.5,�L
2016/06/19,20:40,1.317,-,2.500,2.279,2.102,0.644,1.210,1.046,��,8.4,�L
2016/06/19,20:50,1.314,-,2.500,2.278,2.104,0.644,1.211,1.046,��,8.7,��
2016/06/19,21:00,1.318,-,2.499,2.277,2.101,0.646,1.212,1.046,��,8.3,��
2016/06/19,21:10,1.317,-,2.501,2.279,2.105,0.646,1.212,1.046,��,10.4,��
2016/06/19,21:20,1.318,-,2.497,2.278,2.105,0.645,1.212,1.047,��,11.6,��
2016/06/19,21:30,1.316,-,2.496,2.279,2.105,0.647,1.208,1.047,��,11.3,��
2016/06/19,21:40,1.319,-,2.497,2.278,2.103,0.643,1.210,1.045,��,10.1,��
2016/06/19,21:50,1.317,-,2.496,2.279,2.104,0.646,1.211,1.047,��,8.5,��
2016/06/19,22:00,1.317,-,2.497,2.280,2.106,0.646,1.210,1.044,��,8.6,��
2016/06/19,22:10,1.316,-,2.496,2.278,2.103,0.645,1.210,1.046,��,9.5,��
2016/06/19,22:20,1.316,-,2.501,2.277,2.104,0.646,1.209,1.048,��,10.0,��
2016/06/19,22:30,1.314,-,2.499,2.277,2.103,0.646,1.210,1.047,��,10.3,��
2016/06/19,22:40,1.317,-,2.499,2.281,2.101,0.645,1.211,1.046,��쓌,11.0,��
2016/06/19,22:50,1.317,-,2.497,2.282,2.105,0.645,1.210,1.049,��,9.9,��
2016/06/19,23:00,1.315,-,2.500,2.280,2.098,0.643,1.209,1.047,��,9.6,��
2016/06/19,23:10,1.315,-,2.499,2.282,2.103,0.643,1.209,1.047,��,8.9,��
2016/06/19,23:20,1.318,-,2.499,2.279,2.100,0.643,1.209,1.045,��,9.1,��
2016/06/19,23:30,1.316,-,2.496,2.279,2.101,0.644,1.208,1.047,��,11.4,��
2016/06/19,23:40,1.316,-,2.502,2.279,2.103,0.645,1.209,1.046,��,10.6,��
2016/06/19,23:50,1.316,-,2.498,2.280,2.102,0.644,1.210,1.047,��,10.4,��
